+ View the NASA Portal
+ Center for Near-Earth Object Studies
IMPORTANT:
The SSD Announcement email list is now available. Major changes are coming in the near future, including possible hostname and/or URL changes. To be notified of such changes, subscribe to this email list.
Please visit
this page
for more details.
Don't show this message again
JPL Small-Body Database Browser
Search:
[
help
]
27013 (1998 FU60)
Classification:
Main-belt Asteroid
SPK-ID:
2027013
[
Ephemeris
|
Orbit Diagram
|
Orbital Elements
|
Mission Design
|
Physical Parameters
|
Discovery Circumstances
|
Close-Approach Data
]
[ show orbit diagram ]
Orbital Elements at Epoch 2458600.5 (2019-Apr-27.0) TDB
Reference:
JPL 21
(heliocentric ecliptic J2000)
Element
Value
Uncertainty (1-sigma)
Units
e
.17692106497169
4.3742e-08
a
2.693049079353914
1.4391e-08
au
q
2.21659196821359
1.1738e-07
au
i
3.962046390914518
4.9254e-06
deg
node
180.2172327470025
6.9572e-05
deg
peri
356.8689728920969
7.1123e-05
deg
M
285.1734869621707
1.7466e-05
deg
t
p
2458936.019553982918
(2020-Mar-27.51955398)
8.0007e-05
TDB
period
1614.227825540732
4.42
1.2939e-05
3.543e-08
d
yr
n
.2230168470051045
1.7876e-09
deg/d
Q
3.169506190494238
1.6937e-08
au
Orbit Determination Parameters
# obs. used (total)
1120
data-arc span
21563 days (59.04 yr)
first obs. used
1960-09-24
last obs. used
2019-10-08
planetary ephem.
DE431
SB-pert. ephem.
SB431-N16
condition code
0
norm. resid. RMS
.55586
source
ORB
producer
Otto Matic
solution date
2019-Nov-07 04:57:03
Additional Information
Earth MOID
= 1.22118 au
Jupiter MOID
= 1.7949 au
T_jup
= 3.345
[ show covariance matrix ]
[
Ephemeris
|
Orbit Diagram
|
Orbital Elements
|
Mission Design
|
Physical Parameters
|
Discovery Circumstances
|
Close-Approach Data
]
Physical Parameter Table
Parameter
Symbol
Value
Units
Sigma
Reference
Notes
absolute magnitude
H
14.7
n/a
MPO381475
diameter
diameter
6.642
km
0.121
urn:nasa:pds:neowise_diameters_albedos::2.0[mainbelt] (http://adsabs.harvard.edu/abs/2011ApJ...741...68M)
geometric albedo
albedo
0.070
0.011
urn:nasa:pds:neowise_diameters_albedos::2.0[mainbelt] (http://adsabs.harvard.edu/abs/2011ApJ...741...68M)
27013 (1998 FU60)
Discovered 1998-Mar-20 by LINEAR at Socorro
Reference:
20010804/Numbers.arc
Last Updated:
2004-04-19
[ show close-approach data ]
Alternate Designations
1998 FU60
= 4824 P-L
[
Ephemeris
|
Orbit Diagram
|
Orbital Elements
|
Mission Design
|
Physical Parameters
|
Discovery Circumstances
|
Close-Approach Data
]
2019-Dec-10 19:47 UT
(server date/time)
Site Manager:
Ryan S. Park
Webmaster
:
Alan B. Chamberlin